Details for AirAsia at WMKL




Go Back


Latest METAR
Local Time

WMKL 180600Z 17008KT 110V230 9999 FEW022 SCT140 BKN280 32/24 Q1006
18/08/2018, 14:29:34

Description
Results
AirAsia Logo
Number of Pilots based at WMKL
0 Pilots Based here
Number of AirAsia Flights Departed from WMKL
0 Flights Departed
Number of AirAsia Flights Arrived at WMKL
0 Flights Arrived
Number of AirAsia Schedules Departing from WMKL
22 Schedules
Number of AirAsia Schedules Arriving at WMKL
21 Schedules
Number of AirAsia Schedules Departing from WMKL availible today
16 Schedules Today
Number of AirAsia Schedules Arriving at WMKL availible today
17 Schedules Today
Average Landing Rate at WMKL
0 fpm
AirAsia Average Landing Rate at WMKL
0 fpm
Total Fuel Purchased at WMKL by AirAsia
0.00 kgs / 0.00 lbs

Pilots Based at WMKL


Pilot ID
Pilot Name
Pilot Rank
No. of Flights
No. of Flying Hours
There are no pilots assigned to this hub!   Will you be the first?
Content